Time,TemperatureF,DewpointF,PressureIn,WindDirection,WindDirectionDegrees,WindSpeedMPH,WindSpeedGustMPH,Humidity,HourlyPrecipIn,Conditions,Clouds,dailyrainin,SoftwareType,DateUTC
2011-09-19 00:03:00,58.6,47.7,30.14,ENE,67,0.0,6.9,67,0.00,,,0.00,open2300-1.11,2011-09-19 06:03:00,
2011-09-19 00:18:00,58.5,47.5,30.13,East,90,1.8,2.0,67,0.00,,,0.00,open2300-1.11,2011-09-19 06:18:00,
2011-09-19 00:33:00,58.3,47.3,30.13,East,90,0.0,1.8,67,0.00,,,0.00,open2300-1.11,2011-09-19 06:33:00,
2011-09-19 00:48:00,57.9,47.0,30.13,SE,135,0.0,2.0,67,0.00,,,0.00,open2300-1.11,2011-09-19 06:48:00,
2011-09-19 01:03:00,57.7,46.4,30.13,SE,135,0.0,0.0,66,0.00,,,0.00,open2300-1.11,2011-09-19 07:03:00,
2011-09-19 01:18:00,57.0,46.1,30.13,ENE,67,0.0,5.8,67,0.00,,,0.00,open2300-1.11,2011-09-19 07:18:00,
2011-09-19 01:33:00,57.0,46.1,30.13,ENE,67,1.3,6.0,67,0.00,,,0.00,open2300-1.11,2011-09-19 07:33:00,
2011-09-19 01:48:00,57.0,46.5,30.13,East,90,3.1,6.0,68,0.00,,,0.00,open2300-1.11,2011-09-19 07:48:00,
2011-09-19 02:03:00,57.0,46.9,30.14,East,90,0.0,4.2,69,0.00,,,0.00,open2300-1.11,2011-09-19 08:03:00,
2011-09-19 02:18:00,56.8,46.3,30.13,East,90,0.0,0.0,68,0.00,,,0.00,open2300-1.11,2011-09-19 08:18:00,
2011-09-19 02:33:00,56.8,46.3,30.12,ENE,67,0.0,3.1,68,0.00,,,0.00,open2300-1.11,2011-09-19 08:33:00,
2011-09-19 02:48:00,57.0,46.9,30.13,ENE,67,4.0,4.7,69,0.00,,,0.00,open2300-1.11,2011-09-19 08:48:00,
2011-09-19 03:03:00,56.8,46.3,30.13,East,90,3.8,7.2,68,0.00,,,0.00,open2300-1.11,2011-09-19 09:03:00,
2011-09-19 03:18:00,56.3,45.9,30.13,NE,45,5.6,7.6,68,0.00,,,0.00,open2300-1.11,2011-09-19 09:18:00,
2011-09-19 03:33:00,56.1,46.1,30.13,East,90,4.9,7.4,69,0.00,,,0.00,open2300-1.11,2011-09-19 09:33:00,
2011-09-19 03:48:00,55.9,45.9,30.13,ENE,67,3.6,6.5,69,0.00,,,0.00,open2300-1.11,2011-09-19 09:48:00,
2011-09-19 04:03:00,55.8,45.8,30.13,East,90,2.0,5.1,69,0.00,,,0.00,open2300-1.11,2011-09-19 10:03:00,
2011-09-19 04:18:00,55.6,45.6,30.13,NE,45,1.8,4.5,69,0.00,,,0.00,open2300-1.11,2011-09-19 10:18:00,
2011-09-19 04:33:00,55.2,45.3,30.13,East,90,0.0,5.1,69,0.00,,,0.00,open2300-1.11,2011-09-19 10:33:00,
2011-09-19 04:48:00,54.9,44.9,30.12,East,90,0.0,3.4,69,0.00,,,0.00,open2300-1.11,2011-09-19 10:48:00,
2011-09-19 05:03:00,54.5,45.0,30.13,East,90,3.6,3.6,70,0.00,,,0.00,open2300-1.11,2011-09-19 11:03:00,
2011-09-19 05:18:00,54.3,44.8,30.13,East,90,0.0,8.3,70,0.00,,,0.00,open2300-1.11,2011-09-19 11:18:00,
2011-09-19 05:33:00,54.1,44.6,30.13,ENE,67,2.0,2.2,70,0.00,,,0.00,open2300-1.11,2011-09-19 11:33:00,
2011-09-19 05:48:00,54.3,44.8,30.14,East,90,6.0,6.0,70,0.00,,,0.00,open2300-1.11,2011-09-19 11:48:00,
2011-09-19 06:03:00,54.1,44.6,30.14,East,90,5.1,6.0,70,0.00,,,0.00,open2300-1.11,2011-09-19 12:03:00,
2011-09-19 06:18:00,54.0,44.8,30.14,ENE,67,2.5,7.4,71,0.00,,,0.00,open2300-1.11,2011-09-19 12:18:00,
2011-09-19 06:33:00,54.3,45.1,30.14,East,90,7.2,7.6,71,0.00,,,0.00,open2300-1.11,2011-09-19 12:33:00,
2011-09-19 06:48:00,54.3,44.8,30.14,East,90,4.2,9.4,70,0.00,,,0.00,open2300-1.11,2011-09-19 12:48:00,
2011-09-19 07:03:00,54.0,44.0,30.14,ESE,112,0.0,6.0,69,0.00,,,0.00,open2300-1.11,2011-09-19 13:03:00,
2011-09-19 07:18:00,53.4,43.1,30.15,East,90,0.0,1.6,68,0.00,,,0.00,open2300-1.11,2011-09-19 13:18:00,
2011-09-19 07:33:00,53.4,43.9,30.15,East,90,0.0,7.6,70,0.00,,,0.00,open2300-1.11,2011-09-19 13:33:00,
2011-09-19 07:48:00,53.8,44.2,30.15,ENE,67,0.0,4.7,70,0.00,,,0.00,open2300-1.11,2011-09-19 13:48:00,
2011-09-19 08:03:00,54.0,43.6,30.15,ESE,112,0.0,0.0,68,0.00,,,0.00,open2300-1.11,2011-09-19 14:03:00,
2011-09-19 08:18:00,54.3,44.0,30.15,SSE,157,0.0,1.6,68,0.00,,,0.00,open2300-1.11,2011-09-19 14:18:00,
2011-09-19 08:33:00,55.2,44.0,30.15,SE,135,0.0,1.8,66,0.00,,,0.00,open2300-1.11,2011-09-19 14:33:00,
2011-09-19 08:48:00,55.6,44.4,30.15,ESE,112,0.0,2.5,66,0.00,,,0.00,open2300-1.11,2011-09-19 14:48:00,
2011-09-19 09:03:00,56.3,44.6,30.16,SSE,157,0.0,0.0,65,0.00,,,0.00,open2300-1.11,2011-09-19 15:03:00,
2011-09-19 09:18:00,57.0,45.3,30.16,ENE,67,0.0,2.2,65,0.00,,,0.00,open2300-1.11,2011-09-19 15:18:00,
2011-09-19 09:33:00,57.9,46.6,30.16,ENE,67,0.0,1.3,66,0.00,,,0.00,open2300-1.11,2011-09-19 15:33:00,
2011-09-19 09:48:00,58.8,46.6,30.15,ENE,67,0.0,0.0,64,0.00,,,0.00,open2300-1.11,2011-09-19 15:48:00,
2011-09-19 10:03:00,59.4,46.7,30.16,ENE,67,0.0,0.0,63,0.00,,,0.00,open2300-1.11,2011-09-19 16:03:00,
2011-09-19 10:18:00,60.1,47.5,30.16,ENE,67,0.0,0.0,63,0.00,,,0.00,open2300-1.11,2011-09-19 16:18:00,
2011-09-19 10:33:00,61.0,47.9,30.16,NW,315,0.0,0.0,62,0.00,,,0.00,open2300-1.11,2011-09-19 16:33:00,
2011-09-19 10:48:00,62.1,49.3,30.16,WNW,292,0.0,0.0,63,0.00,,,0.00,open2300-1.11,2011-09-19 16:48:00,
2011-09-19 11:03:00,63.0,50.1,30.16,WNW,292,0.0,0.0,63,0.00,,,0.00,open2300-1.11,2011-09-19 17:03:00,
2011-09-19 11:18:00,64.2,50.9,30.15,WSW,247,1.8,3.1,62,0.00,,,0.00,open2300-1.11,2011-09-19 17:18:00,
2011-09-19 11:33:00,65.3,51.1,30.15,WSW,247,0.0,3.8,60,0.00,,,0.00,open2300-1.11,2011-09-19 17:33:00,
2011-09-19 11:48:00,66.4,51.7,30.14,NW,315,0.0,2.9,59,0.00,,,0.00,open2300-1.11,2011-09-19 17:48:00,
2011-09-19 12:03:00,67.3,52.0,30.14,WNW,292,0.0,2.2,58,0.00,,,0.00,open2300-1.11,2011-09-19 18:03:00,
2011-09-19 12:18:00,68.2,52.3,30.14,WNW,292,0.0,0.0,57,0.00,,,0.00,open2300-1.11,2011-09-19 18:18:00,
2011-09-19 12:33:00,69.1,51.7,30.13,North,0,0.0,2.9,54,0.00,,,0.00,open2300-1.11,2011-09-19 18:33:00,
2011-09-19 12:48:00,70.0,51.5,30.12,West,270,0.0,2.5,52,0.00,,,0.00,open2300-1.11,2011-09-19 18:48:00,
2011-09-19 13:03:00,70.7,51.2,30.11,West,270,0.0,1.8,50,0.00,,,0.00,open2300-1.11,2011-09-19 19:03:00,
2011-09-19 13:18:00,71.4,51.2,30.11,WSW,247,0.0,0.0,49,0.00,,,0.00,open2300-1.11,2011-09-19 19:18:00,
2011-09-19 13:33:00,72.3,51.4,30.11,WSW,247,0.0,1.8,48,0.00,,,0.00,open2300-1.11,2011-09-19 19:33:00,
2011-09-19 13:48:00,73.4,51.8,30.10,West,270,0.0,1.8,47,0.00,,,0.00,open2300-1.11,2011-09-19 19:48:00,
2011-09-19 14:03:00,73.9,50.5,30.10,West,270,0.0,0.0,44,0.00,,,0.00,open2300-1.11,2011-09-19 20:03:00,
2011-09-19 14:18:00,75.0,51.5,30.08,WSW,247,0.0,2.5,44,0.00,,,0.00,open2300-1.11,2011-09-19 20:18:00,
2011-09-19 14:33:00,75.6,51.4,30.07,WSW,247,2.9,2.9,43,0.00,,,0.00,open2300-1.11,2011-09-19 20:33:00,
2011-09-19 14:48:00,76.6,51.8,30.07,WSW,247,1.6,3.1,42,0.00,,,0.00,open2300-1.11,2011-09-19 20:48:00,
2011-09-19 15:03:00,76.8,51.3,30.07,WNW,292,0.0,1.6,41,0.00,,,0.00,open2300-1.11,2011-09-19 21:03:00,
2011-09-19 15:18:00,77.2,50.3,30.06,WSW,247,0.0,4.2,39,0.00,,,0.00,open2300-1.11,2011-09-19 21:18:00,
2011-09-19 15:33:00,77.2,51.1,30.05,WSW,247,0.0,5.4,40,0.00,,,0.00,open2300-1.11,2011-09-19 21:33:00,
2011-09-19 15:48:00,78.1,51.1,30.06,WSW,247,0.2,6.3,39,0.00,,,0.00,open2300-1.11,2011-09-19 21:48:00,
2011-09-19 16:03:00,78.6,50.8,30.05,WSW,247,0.0,2.5,38,0.00,,,0.00,open2300-1.11,2011-09-19 22:03:00,
2011-09-19 16:18:00,78.6,50.8,30.04,WNW,292,6.3,6.3,38,0.00,,,0.00,open2300-1.11,2011-09-19 22:18:00,
2011-09-19 16:33:00,78.4,50.7,30.04,WSW,247,1.6,6.3,38,0.00,,,0.00,open2300-1.11,2011-09-19 22:33:00,
2011-09-19 16:48:00,79.2,49.8,30.04,WSW,247,0.0,2.9,36,0.00,,,0.00,open2300-1.11,2011-09-19 22:48:00,
2011-09-19 17:03:00,79.5,50.1,30.04,NW,315,1.6,7.6,36,0.00,,,0.00,open2300-1.11,2011-09-19 23:03:00,
2011-09-19 17:18:00,79.7,50.2,30.04,WNW,292,0.0,3.8,36,0.00,,,0.00,open2300-1.11,2011-09-19 23:18:00,
2011-09-19 17:33:00,82.9,51.5,30.03,SW,225,0.0,0.0,34,0.00,,,0.00,open2300-1.11,2011-09-19 23:33:00,
2011-09-19 17:48:00,80.4,49.3,30.03,SW,225,0.0,0.0,34,0.00,,,0.00,open2300-1.11,2011-09-19 23:48:00,
2011-09-19 18:03:00,77.5,49.1,30.03,West,270,0.0,0.0,37,0.00,,,0.00,open2300-1.11,2011-09-20 00:03:00,
2011-09-19 18:18:00,75.9,48.4,30.02,WSW,247,0.0,0.0,38,0.00,,,0.00,open2300-1.11,2011-09-20 00:18:00,
2011-09-19 18:33:00,74.8,48.2,30.02,WSW,247,0.0,0.0,39,0.00,,,0.00,open2300-1.11,2011-09-20 00:33:00,
2011-09-19 18:48:00,73.9,48.7,30.02,WSW,247,0.0,0.0,41,0.00,,,0.00,open2300-1.11,2011-09-20 00:48:00,
2011-09-19 19:03:00,73.0,48.5,30.02,WSW,247,0.0,0.0,42,0.00,,,0.00,open2300-1.11,2011-09-20 01:03:00,
2011-09-19 19:18:00,72.0,49.3,30.03,WSW,247,0.0,0.0,45,0.00,,,0.00,open2300-1.11,2011-09-20 01:18:00,
2011-09-19 19:33:00,70.9,50.1,30.03,WSW,247,0.0,0.0,48,0.00,,,0.00,open2300-1.11,2011-09-20 01:33:00,
2011-09-19 19:48:00,69.6,50.2,30.03,WSW,247,0.0,0.0,50,0.00,,,0.00,open2300-1.11,2011-09-20 01:48:00,
2011-09-19 20:03:00,68.2,49.4,30.04,WSW,247,0.0,0.0,51,0.00,,,0.00,open2300-1.11,2011-09-20 02:03:00,
2011-09-19 20:18:00,66.9,49.2,30.04,WSW,247,0.0,0.0,53,0.00,,,0.00,open2300-1.11,2011-09-20 02:18:00,
2011-09-19 20:33:00,66.0,48.9,30.04,WSW,247,0.0,0.0,54,0.00,,,0.00,open2300-1.11,2011-09-20 02:33:00,
2011-09-19 20:48:00,65.3,48.2,30.04,WSW,247,0.0,0.0,54,0.00,,,0.00,open2300-1.11,2011-09-20 02:48:00,
2011-09-19 21:03:00,64.8,47.6,30.04,WSW,247,0.0,0.0,54,0.00,,,0.00,open2300-1.11,2011-09-20 03:03:00,
2011-09-19 21:18:00,64.4,47.3,30.04,WSW,247,0.0,0.0,54,0.00,,,0.00,open2300-1.11,2011-09-20 03:18:00,
2011-09-19 21:33:00,64.0,47.4,30.04,ESE,112,0.0,0.0,55,0.00,,,0.00,open2300-1.11,2011-09-20 03:33:00,
2011-09-19 21:48:00,63.5,47.4,30.05,East,90,0.0,2.9,56,0.00,,,0.00,open2300-1.11,2011-09-20 03:48:00,
2011-09-19 22:03:00,63.1,47.1,30.05,East,90,0.0,0.0,56,0.00,,,0.00,open2300-1.11,2011-09-20 04:03:00,
2011-09-19 22:18:00,62.6,47.1,30.04,ENE,67,0.4,0.4,57,0.00,,,0.00,open2300-1.11,2011-09-20 04:18:00,
2011-09-19 22:33:00,62.2,46.8,30.05,SSE,157,0.0,0.0,57,0.00,,,0.00,open2300-1.11,2011-09-20 04:33:00,
2011-09-19 22:48:00,62.1,47.6,30.04,East,90,3.6,4.5,59,0.00,,,0.00,open2300-1.11,2011-09-20 04:48:00,
2011-09-19 23:03:00,62.2,47.8,30.04,East,90,0.0,6.3,59,0.00,,,0.00,open2300-1.11,2011-09-20 05:03:00,
2011-09-19 23:18:00,62.2,47.3,30.05,East,90,0.0,1.1,58,0.00,,,0.00,open2300-1.11,2011-09-20 05:18:00,
2011-09-19 23:33:00,61.9,46.5,30.05,ENE,67,0.0,0.4,57,0.00,,,0.00,open2300-1.11,2011-09-20 05:33:00,
2011-09-19 23:48:00,61.5,46.6,30.05,SE,135,0.0,2.5,58,0.00,,,0.00,open2300-1.11,2011-09-20 05:48:00,